sat.trackr.live / text

‹ back to catalog

STARLINK-30448

NORAD 57928 · 2023-147R

PAYLOAD ACTIVE UNKNOWN

§ Identity

Operator
Country
US
Launch date
2023-09-24
Launch site
AFETR
Launch vehicle
Mass (kg)
RCS (m²)

Purposes: comms

External: N2YO · Heavens-Above · Gunter

§ Orbital elements

Epoch: 2026-05-25T00:51:57.076992Z

Period
94.27 min
Inclination
43.0023°
Eccentricity
0.0001081
Mean motion
15.27575799 rev/d
Perigee alt
482.3 km
Apogee alt
483.8 km
Semi-major
6,861.2 km
B*
1.1949e-5
RAAN
257.4956°
Arg perigee
301.0503°
Mean anomaly
59.0243°
Rev number
14,823

§ Raw data

STARLINK-304481 57928U 23147R   26145.03607728  .00000067  00000+0  11949-4 0  99992 57928  43.0023 257.4956 0001081 301.0503  59.0243 15.27575799148233

JSON: /api/v1/satellites/57928 · /tle

For live sub-satellite position, see the globe view (requires WebGL).

§ Visibility from observer

Set your observer location to see the next 7 days of passes ≥ 10°. The values pass through the URL so the page stays shareable.

No JS? Fill the form by hand. The geolocation button needs JavaScript.